DMSP 5D-3 F17 (USA 191)

Last updated on Sun Jun 21 2026 00:02:46 GMT+0000 (Coordinated Universal Time)

1 29522U 06050A 26171.42241591 -.00000013 00000+0 15609-4 0 9995 2 29522 98.7378 177.9264 0011060 51.0273 309.1884 14.14993196 12885
UTC large
Height (km)
Speed (km/s)
/
Latitude / Longitude
Inclination (degrees)
Orbital Period (minutes)
Azimuth
Elevation
Range (km)
Doppler Factor

Next 0 passes for location: London (51.5072 / 0.1276)

No passes found over London.
DMSP 5D-3 F17 (USA 191)